[[{"header":{"parameterUnit":"m.s-1","parameterCategory":1,"la1":30.2991,"la2":30.254,"lo1":-89.0895,"lo2":-89.0444,"dy":0.0017,"dx":0.0017,"nx":28,"ny":28,"refTime":"2024-03-30T21:00:00:Z","depth":0,"parameterNumber":2,"parameterNumberName":"U-component_of_WINDS"},"data":[0,0,0,0,0,0,0,0,0,0,0,0,0,0,0,0,0,0,0,0,0,0,0,0,0,0,0,0,0,0,0,0,0,0,0,0,0,0,0,0,0,0,0,0,0,0,0,0,0,0,0,0,0,0,0,0,0,0,-2.4848,-2.4848,0,-2.4914,-2.4914,-2.4915,-2.4898,-2.4897,-2.4896,-2.4894,-2.496,-2.4963,-2.4966,0,0,0,0,0,0,0,0,0,0,0,0,0,-2.4705,-2.4708,-2.4848,-2.4848,-2.4849,-2.4913,-2.4914,-2.4915,-2.4898,-2.4897,-2.4895,-2.4894,-2.4959,-2.4963,-2.4966,0,0,0,0,0,0,0,0,0,0,0,0,0,-2.4769,-2.4709,-2.4848,-2.4849,-2.4849,-2.4913,-2.4914,-2.4915,-2.4899,-2.4897,-2.4895,-2.4893,-2.4958,-2.4963,-2.4967,-2.5033,0,0,-2.4981,-2.4982,0,0,0,0,0,0,0,0,-2.4765,-2.4774,-2.4848,-2.4849,-2.485,-2.4896,-2.4888,-2.4955,-2.4899,-2.488,-2.4894,-2.4892,-2.494,-2.4946,-2.4963,-2.5036,-2.5039,-2.4981,-2.4984,-2.4986,-2.4987,0,0,0,0,0,0,0,-2.4761,-2.4771,-2.4874,-2.4849,-2.485,-2.4845,-2.4852,-2.4901,-2.492,-2.4882,-2.488,-2.4889,-2.494,-2.4958,-2.4964,-2.504,-2.4981,-2.4985,-2.4987,-2.4989,-2.5169,-2.5171,0,0,0,0,0,0,-2.4756,-2.4767,-2.4872,-2.4876,-2.4802,-2.4849,-2.4857,-2.4883,-2.492,-2.4923,-2.489,-2.4888,-2.4952,-2.4959,-2.4966,-2.5045,-2.4985,-2.499,-2.4992,-2.5167,-2.517,-2.5172,0,0,0,0,0,0,-2.4753,-2.4765,-2.4869,-2.4821,-2.4834,-2.4854,-2.4883,-2.4885,-2.4903,-2.4926,-2.4929,-2.4905,-2.4951,-2.496,-2.5016,-2.5047,-2.4992,-2.4996,-2.5165,-2.5168,-2.5171,-2.5203,0,0,0,0,0,0,-2.4749,-2.4764,-2.479,-2.4822,-2.4837,-2.4918,-2.4885,-2.4888,-2.4911,-2.4908,-2.4941,-2.4945,-2.495,-2.501,-2.5021,-2.5052,-2.4999,-2.5162,-2.5166,-2.517,-2.5199,-2.5207,-2.5213,0,0,0,0,0,-2.4744,-2.4796,-2.4792,-2.4804,-2.487,-2.492,-2.4929,-2.4934,-2.4914,-2.4939,-2.4954,-2.4943,-2.5042,-2.5016,-2.5028,-2.5061,-2.516,-2.5165,-2.517,-2.5196,-2.5205,-2.5213,0,0,0,0,0,0,-2.4767,-2.4801,-2.4796,-2.486,-2.4888,-2.4917,-2.495,-2.4944,-2.4977,-2.4973,-2.4978,-2.4986,-2.5043,-2.5058,-2.5028,-2.5126,-2.5098,-2.5105,-2.5114,-2.5123,-2.513,-2.5124,-2.5003,0,0,0,0,0,-2.478,-2.4819,-2.4846,-2.4901,-2.4915,-2.493,-2.4952,-2.4954,-2.4982,-2.4994,-2.5012,-2.504,-2.5077,-2.5101,-2.5136,-2.5202,-2.5208,-2.523,-2.5237,-2.5243,-2.5249,-2.5283,-2.5292,-2.5188,-2.5188,-2.5188,0,0,-2.4807,-2.483,-2.4854,-2.4906,-2.4927,-2.4966,-2.494,-2.4983,-2.5011,-2.5,-2.5054,-2.5069,-2.5099,-2.516,-2.5188,-2.5174,-2.5279,-2.5249,-2.5253,-2.5256,-2.5289,-2.5298,-2.5307,-2.5191,-2.519,-2.519,0,0,-2.4875,-2.4897,-2.4944,-2.4966,-2.4999,-2.5008,-2.502,-2.5051,-2.506,-2.5114,-2.5106,-2.514,-2.5204,-2.5226,-2.5246,-2.5322,-2.5313,-2.5333,-2.5369,-2.5402,-2.541,-2.5418,-2.5443,-2.5452,-2.5339,-2.5339,-2.5339,0,-2.4903,-2.4963,-2.4969,-2.5012,-2.5034,-2.5027,-2.5073,-2.5094,-2.5137,-2.5152,-2.5137,-2.5216,-2.5236,-2.5301,-2.5319,-2.5336,-2.5348,-2.5328,-2.5409,-2.5416,-2.5423,-2.5447,-2.5457,-2.5341,-2.5341,-2.5341,-2.5341,0,-2.4995,-2.5036,-2.507,-2.5112,-2.5138,-2.5183,-2.5195,-2.5221,-2.5221,-2.5232,-2.5286,-2.5311,-2.535,-2.5366,-2.5366,-2.5431,-2.5421,-2.5408,-2.5379,-2.5435,-2.5457,-2.5467,-2.5344,-2.5344,-2.5343,-2.5343,0,0,-2.5079,-2.5123,-2.5135,-2.5153,-2.5188,-2.522,-2.5264,-2.5303,-2.5324,-2.5354,-2.539,-2.5445,-2.5432,-2.5454,-2.5457,-2.5486,-2.5542,-2.5469,-2.5469,-2.548,-2.5612,-2.5621,-2.5631,-2.5537,-2.5539,-2.5541,-2.5609,0,-2.5148,-2.5226,-2.5233,-2.5303,-2.534,-2.5333,-2.5371,-2.5397,-2.5409,-2.5441,-2.5454,-2.5492,-2.5473,-2.5486,-2.5515,-2.5529,-2.5569,-2.5525,-2.5569,-2.5571,-2.556,-2.5644,-2.5653,-2.5716,-2.5618,-2.562,-2.5621,0,-2.5239,-2.5272,-2.5345,-2.5374,-2.539,-2.5425,-2.546,-2.5492,-2.5521,-2.5527,-2.5552,-2.555,-2.5594,-2.5566,-2.5626,-2.5596,-2.5615,-2.5625,-2.5628,-2.563,-2.5598,-2.5646,-2.5737,-2.5745,-2.5635,-2.5634,-2.5633,0,-2.529,-2.5352,-2.5404,-2.542,-2.5456,-2.548,-2.5496,-2.5522,-2.5545,-2.5576,-2.559,-2.5627,-2.5646,-2.5673,-2.5681,-2.566,-2.5741,-2.5713,-2.5746,-2.5745,-2.5761,-2.576,-2.5854,-2.5777,-2.5777,-2.5777,-2.5777,0,-2.5366,-2.541,-2.5427,-2.5458,-2.5508,-2.5515,-2.5564,-2.5578,-2.5602,-2.5635,-2.5632,-2.5664,-2.5673,-2.5706,-2.5713,-2.576,-2.577,-2.5775,-2.5776,-2.5774,-2.5773,-2.5785,-2.578,-2.5779,-2.5779,-2.5778,-2.5778,0,-2.543,-2.5443,-2.5498,-2.5528,-2.5537,-2.5572,-2.5596,-2.5626,-2.5638,-2.568,-2.569,-2.5708,-2.5746,-2.5758,-2.5804,-2.5808,-2.5864,-2.5862,-2.5854,-2.5853,-2.5884,-2.588,-2.5987,-2.6001,-2.5918,-2.5918,-2.5919,0,-2.5476,-2.5511,-2.5544,-2.5566,-2.5583,-2.5619,-2.5642,-2.5651,-2.5674,-2.5709,-2.5734,-2.5772,-2.5803,-2.5865,-2.5881,-2.5916,-2.5913,-2.5949,-2.5919,-2.5915,-2.5911,-2.5908,-2.5911,-2.5953,-2.5954,-2.5955,-2.5956,0,-2.5556,-2.5561,-2.5595,-2.563,-2.5658,-2.5686,-2.5713,-2.5732,-2.5744,-2.5771,-2.581,-2.5834,-2.5881,-2.5918,-2.5954,-2.5969,-2.5964,-2.5965,-2.5974,-2.5972,-2.5965,-2.5967,-2.5867,-2.5962,-2.5962,-2.5961,-2.5961,-2.596,-2.5612,-2.5641,-2.5669,-2.5706,-2.5727,-2.5753,-2.5782,-2.5797,-2.583,-2.5869,-2.5872,-2.5914,-2.5941,-2.5988,-2.6005,-2.6038,-2.6027,-2.6041,-2.6044,-2.6046,-2.6048,-2.5962,-2.6044,-2.6044,-2.6044,-2.6044,-2.6044,0,-2.569,-2.5707,-2.5741,-2.5779,-2.5808,-2.5802,-2.5832,-2.5856,-2.5893,-2.5919,-2.5949,-2.5993,-2.6029,-2.6049,-2.6084,-2.6106,-2.6105,-2.6115,-2.6113,-2.6116,-2.6056,-2.6044,-2.6116,-2.6116,-2.6116,-2.6116,-2.6116,-2.6116,-2.5734,-2.5782,-2.579,-2.5849,-2.5866,-2.5908,-2.5925,-2.5948,-2.5968,-2.6018,-2.6048,-2.6061,-2.6083,-2.612,-2.6153,-2.6158,-2.617,-2.6181,-2.6184,-2.6128,-2.612,-2.6113,-2.6101,-2.6184,-2.6184,-2.6241,-2.6242,-2.6242]},{"header":{"parameterUnit":"m.s-1","parameterCategory":1,"la1":30.2991,"la2":30.254,"lo1":-89.0895,"lo2":-89.0444,"dy":0.0017,"dx":0.0017,"nx":28,"ny":28,"refTime":"2024-03-30T21:00:00:Z","depth":0,"parameterNumber":3,"parameterNumberName":"V-component_of_WINDS"},"data":[0,0,0,0,0,0,0,0,0,0,0,0,0,0,0,0,0,0,0,0,0,0,0,0,0,0,0,0,0,0,0,0,0,0,0,0,0,0,0,0,0,0,0,0,0,0,0,0,0,0,0,0,0,0,0,0,0,0,1.9155,1.9156,0,1.9168,1.9168,1.9169,1.9124,1.9122,1.9121,1.912,1.9133,1.9135,1.9137,0,0,0,0,0,0,0,0,0,0,0,0,0,1.9093,1.9094,1.9155,1.9156,1.9156,1.9168,1.9168,1.9169,1.9124,1.9122,1.9121,1.9119,1.9133,1.9135,1.9137,0,0,0,0,0,0,0,0,0,0,0,0,0,1.9115,1.9095,1.9155,1.9135,1.9133,1.9168,1.9168,1.9169,1.9124,1.9122,1.912,1.9118,1.9132,1.9135,1.9137,1.9193,0,0,1.9145,1.9146,0,0,0,0,0,0,0,0,1.9113,1.9117,1.9138,1.9136,1.9135,1.9142,1.9151,1.9177,1.9125,1.9128,1.912,1.9117,1.9138,1.914,1.9147,1.9193,1.9194,1.9145,1.9146,1.9147,1.9148,0,0,0,0,0,0,0,1.9112,1.9116,1.916,1.9138,1.9136,1.9125,1.9126,1.9156,1.9144,1.9127,1.9124,1.9126,1.9137,1.9145,1.9147,1.9194,1.9145,1.9147,1.9148,1.9149,1.9288,1.929,0,0,0,0,0,0,1.9113,1.9115,1.916,1.9161,1.9119,1.9128,1.9129,1.9142,1.9144,1.9142,1.9128,1.9124,1.9141,1.9144,1.9147,1.9213,1.9147,1.915,1.9151,1.9286,1.9288,1.9291,0,0,0,0,0,0,1.9112,1.9117,1.916,1.9137,1.9142,1.9131,1.9146,1.9143,1.9151,1.9144,1.9142,1.9138,1.914,1.9144,1.9182,1.9213,1.9151,1.9153,1.9283,1.9286,1.929,1.9345,0,0,0,0,0,0,1.911,1.9117,1.9138,1.9138,1.9143,1.9194,1.9148,1.9145,1.9155,1.915,1.9153,1.9151,1.9139,1.9178,1.9184,1.9215,1.9155,1.928,1.9285,1.9288,1.934,1.9349,1.9357,0,0,0,0,0,1.9108,1.9153,1.9139,1.9145,1.9169,1.9196,1.9199,1.9183,1.9158,1.9179,1.9175,1.9151,1.9208,1.9183,1.9189,1.9221,1.9278,1.9283,1.9288,1.9336,1.9348,1.9357,0,0,0,0,0,0,1.9157,1.9153,1.9137,1.9183,1.919,1.9188,1.9214,1.9195,1.921,1.9205,1.9184,1.9186,1.9228,1.9228,1.9199,1.9275,1.9239,1.9246,1.9273,1.9284,1.9293,1.9292,1.9157,0,0,0,0,0,1.9173,1.9195,1.919,1.9231,1.9235,1.9224,1.9236,1.9223,1.9229,1.9232,1.923,1.9238,1.9257,1.9271,1.9288,1.934,1.934,1.9365,1.9374,1.9381,1.9387,1.9415,1.9426,1.9307,1.9307,1.9307,0,0,1.9206,1.9207,1.9222,1.9241,1.9245,1.9269,1.9227,1.9254,1.9271,1.9236,1.9272,1.9271,1.9278,1.9324,1.9344,1.9325,1.942,1.9387,1.9393,1.9395,1.9421,1.9432,1.9442,1.931,1.931,1.9309,0,0,1.928,1.9282,1.9317,1.9322,1.9328,1.932,1.9329,1.933,1.9328,1.9364,1.9338,1.9359,1.9393,1.9399,1.9407,1.9484,1.9463,1.949,1.9536,1.9563,1.9573,1.9581,1.9609,1.9619,1.9496,1.9496,1.9496,0,1.932,1.9355,1.9337,1.9366,1.9375,1.9344,1.938,1.9386,1.9398,1.9405,1.9384,1.9427,1.943,1.9476,1.9495,1.9502,1.9512,1.9489,1.9573,1.9581,1.9588,1.9615,1.9625,1.9499,1.9499,1.9498,1.9498,0,1.9405,1.943,1.9457,1.9469,1.9482,1.9514,1.9501,1.9516,1.9503,1.9498,1.9535,1.9537,1.9555,1.9565,1.9552,1.961,1.9599,1.9576,1.9539,1.9603,1.9628,1.9638,1.9504,1.9503,1.9502,1.9501,0,0,1.9509,1.9512,1.9522,1.9528,1.9533,1.9552,1.9583,1.96,1.9614,1.9623,1.9649,1.9679,1.9658,1.9667,1.9654,1.9678,1.974,1.9652,1.9652,1.9669,1.9805,1.9823,1.9835,1.9726,1.9728,1.973,1.9805,0,1.9581,1.9634,1.9619,1.9672,1.9695,1.9666,1.9693,1.97,1.9696,1.9715,1.9711,1.9733,1.9703,1.9708,1.9731,1.9728,1.9767,1.9722,1.9751,1.9752,1.975,1.9848,1.9866,1.9937,1.9814,1.9816,1.9817,0,1.9673,1.9686,1.9741,1.9743,1.9752,1.9777,1.9792,1.9811,1.9818,1.9813,1.9824,1.9807,1.9838,1.9801,1.9844,1.9814,1.9825,1.9825,1.9827,1.983,1.9789,1.9853,1.9959,1.997,1.9832,1.9831,1.983,0,1.9744,1.9775,1.9813,1.9818,1.9822,1.984,1.9842,1.9847,1.9859,1.9872,1.988,1.9897,1.9906,1.992,1.9909,1.9883,1.9954,1.9916,1.9952,1.9952,1.9968,1.9967,2.0078,1.9975,1.9974,1.9974,1.9974,0,1.9826,1.9861,1.9845,1.9868,1.9907,1.9889,1.9928,1.9927,1.9932,1.9955,1.9932,1.9954,1.9937,1.9957,1.9948,1.9986,1.999,1.9988,1.9985,1.999,1.9991,1.9998,1.9993,1.9977,1.9976,1.9976,1.9975,0,1.9912,1.9902,1.9941,1.9941,1.9942,1.9971,1.9971,1.9993,1.9988,2.0017,2.0023,2.0015,2.0038,2.0027,2.0052,2.0046,2.0094,2.0085,2.0092,2.009,2.0126,2.0123,2.0246,2.0261,2.0147,2.0149,2.0149,0,1.9965,1.9992,1.9995,2.0009,2.0013,2.0035,2.0046,2.0031,2.0044,2.0055,2.0076,2.0097,2.0113,2.0152,2.0148,2.0167,2.0158,2.02,2.0161,2.0166,2.016,2.0159,2.0162,2.0208,2.0209,2.021,2.0211,0,2.0062,2.0056,2.0074,2.0091,2.0106,2.0118,2.0128,2.0141,2.0126,2.0142,2.0166,2.0179,2.0204,2.0225,2.0242,2.0245,2.0226,2.0223,2.0233,2.0239,2.0242,2.0241,2.0114,2.0221,2.022,2.0219,2.0219,2.0218,2.0133,2.0156,2.0162,2.0183,2.0189,2.02,2.022,2.0218,2.0237,2.0256,2.0246,2.0274,2.0281,2.0301,2.0307,2.0329,2.0313,2.0326,2.0329,2.0333,2.0338,2.0238,2.0332,2.0331,2.0331,2.0331,2.0331,0,2.0229,2.0232,2.0251,2.0267,2.0284,2.0264,2.0275,2.029,2.0315,2.0323,2.034,2.0367,2.0388,2.0387,2.0407,2.0424,2.0416,2.043,2.0429,2.043,2.0351,2.0342,2.0437,2.0437,2.0436,2.0436,2.0436,2.0436,2.0281,2.0318,2.0313,2.0353,2.0356,2.0383,2.0391,2.04,2.0407,2.0439,2.0456,2.0455,2.046,2.048,2.0498,2.0497,2.0506,2.0523,2.052,2.0446,2.0436,2.0426,2.0416,2.0525,2.0525,2.0596,2.0597,2.0598]}]]